H1 CPF 2 NER 2025 11 13 9 317 01 glonass138 H2 1805301 9138 43508 2025 11 13 0 0 0 2025 11 16 23 45 0 900 1 1 0 0 0 1 H9 10 0 60992 0.00000 0 -21462274.629 -13397398.586 -3115331.591 10 0 60992 900.00000 0 -21028184.229 -12966533.995 -6283773.078 10 0 60992 1800.00000 0 -20210534.551 -12420996.444 -9329899.025 10 0 60992 2700.00000 0 -19010532.025 -11819415.386 -12194419.253 10 0 60992 3600.00000 0 -17442901.954 -11220235.069 -14821592.274 10 0 60992 4500.00000 0 -15535461.006 -10679075.476 -17160316.446 10 0 60992 5400.00000 0 -13328151.087 -10246228.046 -19165128.050 10 0 60992 6300.00000 0 -10871574.945 -9964392.896 -20797086.553 10 0 60992 7200.00000 0 -8225094.898 -9866753.608 -22024529.816 10 0 60992 8100.00000 0 -5454574.210 -9975471.072 -22823684.944 10 0 60992 9000.00000 0 -2629855.510 -10300659.788 -23179123.479 10 0 60992 9900.00000 0 177918.741 -10839889.470 -23084052.838 10 0 60992 10800.00000 0 2899032.414 -11578232.438 -22540439.173 10 0 60992 11700.00000 0 5467855.700 -12488854.351 -21558960.026 10 0 60992 12600.00000 0 7825329.117 -13534122.897 -20158788.408 10 0 60992 13500.00000 0 9921169.409 -14667187.485 -18367213.029 10 0 60992 14400.00000 0 11715706.990 -15833963.251 -16219102.399 10 0 60992 15300.00000 0 13181280.031 -16975435.878 -13756223.437 10 0 60992 16200.00000 0 14303128.853 -18030190.349 -11026427.895 10 0 60992 17100.00000 0 15079755.122 -18937057.435 -8082722.345 10 0 60992 18000.00000 0 15522732.605 -19637766.836 -4982239.735 10 0 60992 18900.00000 0 15655979.086 -20079495.560 -1785132.366 10 0 60992 19800.00000 0 15514521.448 -20217204.606 1446592.359 10 0 60992 20700.00000 0 15142807.002 -20015665.761 4650270.928 10 0 60992 21600.00000 0 14592632.977 -19451093.348 7763794.340 10 0 60992 22500.00000 0 13920781.879 -18512312.227 10726807.131 10 0 60992 23400.00000 0 13186462.590 -17201412.690 13481871.779 10 0 60992 24300.00000 0 12448664.947 -15533864.261 15975576.335 10 0 60992 25200.00000 0 11763539.064 -13538082.848 18159564.291 10 0 60992 26100.00000 0 11181909.337 -11254468.355 19991467.248 10 0 60992 27000.00000 0 10747027.477 -8733951.735 21435722.914 10 0 60992 27900.00000 0 10492658.747 -6036110.628 22464263.097 10 0 60992 28800.00000 0 10441581.779 -3226930.571 23057058.795 10 0 60992 29700.00000 0 10604565.144 -376303.324 23202512.038 10 0 60992 30600.00000 0 10979864.090 2444635.276 22897686.880 10 0 60992 31500.00000 0 11553259.277 5166218.706 22148374.736 10 0 60992 32400.00000 0 12298636.878 7722902.910 20968992.221 10 0 60992 33300.00000 0 13179086.749 10055749.940 19382312.598 10 0 60992 34200.00000 0 14148473.725 12114639.416 17419035.022 10 0 60992 35100.00000 0 15153416.985 13860116.195 15117198.837 10 0 60992 36000.00000 0 16135595.063 15264797.365 12521453.201 10 0 60992 36900.00000 0 17034279.893 16314279.846 9682195.378 10 0 60992 37800.00000 0 17788993.124 17007510.609 6654593.777 10 0 60992 38700.00000 0 18342172.294 17356604.094 3497514.488 10 0 60992 39600.00000 0 18641733.469 17386114.664 272372.330 10 0 60992 40500.00000 0 18643420.996 17131795.230 -2958070.725 10 0 60992 41400.00000 0 18312843.719 16638895.017 -6130935.559 10 0 60992 42300.00000 0 17627110.197 15960069.295 -9184459.321 10 0 60992 43200.00000 0 16575992.430 15152990.452 -12059207.087 10 0 60992 44100.00000 0 15162567.752 14277762.612 -14699237.127 10 0 60992 45000.00000 0 13403310.771 13394250.236 -17053196.076 10 0 60992 45900.00000 0 11327630.729 12559434.693 -19075322.086 10 0 60992 46800.00000 0 8976873.184 11824911.229 -20726336.058 10 0 60992 47700.00000 0 6402827.592 11234632.552 -21974203.632 10 0 60992 48600.00000 0 3665803.110 10822994.339 -22794753.427 10 0 60992 49500.00000 0 832352.876 10613343.166 -23172140.103 10 0 60992 50400.00000 0 -2027258.413 10616969.245 -23099143.970 10 0 60992 51300.00000 0 -4841738.412 10832625.615 -22577302.163 10 0 60992 52200.00000 0 -7541491.334 11246593.224 -21616869.618 10 0 60992 53100.00000 0 -10061269.804 11833288.273 -20236611.303 10 0 60992 54000.00000 0 -12342645.065 12556385.487 -18463430.299 10 0 60992 54900.00000 0 -14336193.997 13370409.417 -16331839.312 10 0 60992 55800.00000 0 -16003313.281 14222726.310 -13883286.104 10 0 60992 56700.00000 0 -17317586.695 15055852.415 -11165346.023 10 0 60992 57600.00000 0 -18265650.145 15809981.408 -8230797.260 10 0 60992 58500.00000 0 -18847519.918 16425624.482 -5136596.739 10 0 60992 59400.00000 0 -19076372.028 16846251.969 -1942776.406 10 0 60992 60300.00000 0 -18977783.329 17020825.321 1288718.793 10 0 60992 61200.00000 0 -18588467.473 16906112.875 4495228.783 10 0 60992 62100.00000 0 -17954559.780 16468691.909 7614589.001 10 0 60992 63000.00000 0 -17129523.780 15686552.590 10586330.549 10 0 60992 63900.00000 0 -16171767.855 14550236.079 13352846.820 10 0 60992 64800.00000 0 -15142072.294 13063458.464 15860504.393 10 0 60992 65700.00000 0 -14100934.796 11243193.573 18060677.132 10 0 60992 66600.00000 0 -13105945.684 9119210.152 19910683.994 10 0 60992 67500.00000 0 -12209302.641 6733081.478 21374612.959 10 0 60992 68400.00000 0 -11455568.893 4136707.211 22424015.670 10 0 60992 69300.00000 0 -10879768.539 1390407.465 23038459.739 10 0 60992 70200.00000 0 -10505898.731 -1439333.336 23205928.277 10 0 60992 71100.00000 0 -10345921.109 -4282380.719 22923058.881 10 0 60992 72000.00000 0 -10399275.062 -7067619.651 22195217.151 10 0 60992 72900.00000 0 -10652933.725 -9725669.731 21036402.734 10 0 60992 73800.00000 0 -11082001.066 -12191534.406 19468988.847 10 0 60992 74700.00000 0 -11650825.786 -14407074.806 17523299.334 10 0 60992 75600.00000 0 -12314586.002 -16323205.711 15237030.333 10 0 60992 76500.00000 0 -13021278.684 -17901722.314 12654526.711 10 0 60992 77400.00000 0 -13714030.475 -19116681.446 9825926.427 10 0 60992 78300.00000 0 -14333632.507 -19955279.378 6806188.804 10 0 60992 79200.00000 0 -14821191.915 -20418189.233 3654025.307 10 0 60992 80100.00000 0 -15120787.281 -20519343.822 430753.758 10 0 60992 81000.00000 0 -15182014.712 -20285173.168 -2800901.231 10 0 60992 81900.00000 0 -14962315.528 -19753329.270 -5978037.473 10 0 60992 82800.00000 0 -14428985.645 -18970952.516 -9038809.048 10 0 60992 83700.00000 0 -13560780.182 -17992553.843 -11923639.608 10 0 60992 84600.00000 0 -12349044.098 -16877603.089 -14576390.478 10 0 60992 85500.00000 0 -10798319.864 -15687926.488 -16945459.755 10 0 60993 0.00000 0 -8926405.775 -14485024.309 -18984790.254 10 0 60993 900.00000 0 -6763860.550 -13327421.979 -20654767.317 10 0 60993 1800.00000 0 -4352977.103 -12268168.573 -21922986.367 10 0 60993 2700.00000 0 -1746264.752 -11352586.043 -22764879.221 10 0 60993 3600.00000 0 995494.491 -10616365.392 -23164184.779 10 0 60993 4500.00000 0 3805535.556 -10084088.647 -23113256.794 10 0 60993 5400.00000 0 6613650.579 -9768238.032 -22613203.395 10 0 60993 6300.00000 0 9348874.427 -9668732.894 -21673856.421 10 0 60993 7200.00000 0 11942204.271 -9773012.655 -20313571.854 10 0 60993 8100.00000 0 14329240.869 -10056661.122 -18558865.792 10 0 60993 9000.00000 0 16452642.621 -10484544.789 -16443893.385 10 0 60993 9900.00000 0 18264291.395 -11012416.320 -14009781.107 10 0 60993 10800.00000 0 19727081.168 -11588914.984 -11303825.399 10 0 60993 11700.00000 0 20816256.326 -12157879.267 -8378573.210 10 0 60993 12600.00000 0 21520245.143 -12660873.910 -5290802.278 10 0 60993 13500.00000 0 21840955.027 -13039824.666 -2100420.803 10 0 60993 14400.00000 0 21793518.514 -13239649.650 1130692.245 10 0 60993 15300.00000 0 21405501.814 -13210776.308 4339883.757 10 0 60993 16200.00000 0 20715610.097 -12911437.882 7464937.019 10 0 60993 17100.00000 0 19771944.563 -12309652.502 10445272.884 10 0 60993 18000.00000 0 18629884.941 -11384801.320 13223118.527 10 0 60993 18900.00000 0 17349686.461 -10128738.864 15744621.539 10 0 60993 19800.00000 0 15993892.089 -8546388.245 17960888.223 10 0 60993 20700.00000 0 14624668.287 -6655795.274 19828926.534 10 0 60993 21600.00000 0 13301175.552 -4487637.951 21312475.934 10 0 60993 22500.00000 0 12077083.366 -2084210.281 22382708.691 10 0 60993 23400.00000 0 10998333.133 502078.892 23018789.414 10 0 60993 24300.00000 0 10101242.272 3210631.324 23208282.271 10 0 60993 25200.00000 0 9411028.528 5974930.835 22947397.989 10 0 60993 26100.00000 0 8940816.181 8725068.089 22241075.574 10 0 60993 27000.00000 0 8691165.856 11390415.296 21102896.581 10 0 60993 27900.00000 0 8650147.929 13902340.968 19554832.757 10 0 60993 28800.00000 0 8793956.897 16196852.708 17626830.940 10 0 60993 29700.00000 0 9088041.372 18217058.585 15356242.143 10 0 60993 30600.00000 0 9488702.640 19915344.723 12787104.826 10 0 60993 31500.00000 0 9945094.739 21255178.083 9969295.369 10 0 60993 32400.00000 0 10401541.749 22212458.775 6957561.592 10 0 60993 33300.00000 0 10800074.158 22776364.883 3810457.819 10 0 60993 34200.00000 0 11083076.462 22949654.037 589202.298 10 0 60993 35100.00000 0 11195933.016 22748408.878 -2643520.305 10 0 60993 36000.00000 0 11089558.911 22201237.212 -5824787.254 10 0 60993 36900.00000 0 10722707.273 21347960.918 -8892671.954 10 0 60993 37800.00000 0 10063953.845 20237849.482 -11787458.853 10 0 60993 38700.00000 0 9093273.383 18927473.522 -14452814.328 10 0 60993 39600.00000 0 7803139.924 17478269.784 -16836889.718 10 0 60993 40500.00000 0 6199103.278 15953921.236 -18893334.397 10 0 60993 41400.00000 0 4299816.513 14417663.481 -20582198.784 10 0 60993 42300.00000 0 2136512.551 12929631.516 -21870709.672 10 0 60993 43200.00000 0 -248048.724 11544358.702 -22733903.103 10 0 60993 44100.00000 0 -2801119.146 10308532.918 -23155103.054 10 0 60993 45000.00000 0 -5461922.700 9259103.644 -23126237.332 10 0 60993 45900.00000 0 -8163956.226 8421818.495 -22647985.382 10 0 60993 46800.00000 0 -10837534.829 7810249.415 -21729755.910 10 0 60993 47700.00000 0 -13412476.441 7425347.999 -20389495.490 10 0 60993 48600.00000 0 -15820814.375 7255547.076 -18653332.407 10 0 60993 49500.00000 0 -17999425.740 7277402.829 -16555063.052 10 0 60993 50400.00000 0 -19892467.124 7456749.081 -14135491.071 10 0 60993 51300.00000 0 -21453517.112 7750314.033 -11441632.201 10 0 60993 52200.00000 0 -22647337.415 8107730.448 -8525800.177 10 0 60993 53100.00000 0 -23451180.257 8473853.910 -5444591.445 10 0 60993 54000.00000 0 -23855588.550 8791290.924 -2257788.260 10 0 60993 54900.00000 0 -23864656.543 9003029.977 972798.653 10 0 60993 55800.00000 0 -23495741.040 9055064.362 4184525.507 10 0 60993 56700.00000 0 -22778636.163 8898896.055 7315125.872 10 0 60993 57600.00000 0 -21754246.946 8493814.917 10303912.868 10 0 60993 58500.00000 0 -20472817.800 7808856.985 13092950.029 10 0 60993 59400.00000 0 -18991790.325 6824359.043 15628168.544 10 0 60993 60300.00000 0 -17373380.156 5533043.496 17860409.697 10 0 60993 61200.00000 0 -15681974.059 3940587.178 19746372.840 10 0 60993 62100.00000 0 -13981455.749 2065649.059 21249451.113 10 0 60993 63000.00000 0 -12332571.640 -60645.738 22340439.308 10 0 60993 63900.00000 0 -10790446.022 -2395745.736 22998100.587 10 0 60993 64800.00000 0 -9402348.812 -4887195.199 23209581.336 10 0 60993 65700.00000 0 -8205808.588 -7474577.057 22970666.166 10 0 60993 66600.00000 0 -7227149.335 -10091797.643 22285867.810 10 0 60993 67500.00000 0 -6480511.849 -12669619.907 21168349.620 10 0 60993 68400.00000 0 -5967400.657 -15138341.180 19639681.341 10 0 60993 69300.00000 0 -5676775.555 -17430505.098 17729431.859 10 0 60993 70200.00000 0 -5585684.116 -19483535.432 15474605.730 10 0 60993 71100.00000 0 -5660408.774 -21242182.261 12918933.325 10 0 60993 72000.00000 0 -5858080.385 -22660678.257 10112027.451 10 0 60993 72900.00000 0 -6128690.166 -23704514.506 7108422.195 10 0 60993 73800.00000 0 -6417414.806 -24351760.945 3966512.312 10 0 60993 74700.00000 0 -6667155.874 -24593875.414 747413.900 10 0 60993 75600.00000 0 -6821185.155 -24435966.848 -2486231.009 10 0 60993 76500.00000 0 -6825782.749 -23896501.214 -5671481.930 10 0 60993 77400.00000 0 -6632754.786 -23006462.601 -8746334.466 10 0 60993 78300.00000 0 -6201722.642 -21808005.039 -11650936.802 10 0 60993 79200.00000 0 -5502085.233 -20352652.441 -14328763.317 10 0 60993 80100.00000 0 -4514569.971 -18699123.239 -16727721.485 10 0 60993 81000.00000 0 -3232305.600 -16910872.178 -18801169.823 10 0 60993 81900.00000 0 -1661370.594 -15053453.489 -20508826.696 10 0 60993 82800.00000 0 179206.800 -13191816.947 -21817552.232 10 0 60993 83700.00000 0 2257997.522 -11387650.733 -22701988.449 10 0 60993 84600.00000 0 4532247.141 -9696882.540 -23145045.681 10 0 60993 85500.00000 0 6949433.065 -8167443.299 -23138226.596 10 0 60994 0.00000 0 9449238.566 -6837386.472 -22681782.344 10 0 60994 900.00000 0 11965862.866 -5733439.783 -21784698.319 10 0 60994 1800.00000 0 14430567.966 -4870050.319 -20464511.182 10 0 60994 2700.00000 0 16774360.950 -4248958.936 -18746960.484 10 0 60994 3600.00000 0 18930697.293 -3859321.884 -16665482.525 10 0 60994 4500.00000 0 20838094.431 -3678372.104 -14260556.383 10 0 60994 5400.00000 0 22442547.234 -3672590.978 -11578914.919 10 0 60994 6300.00000 0 23699645.446 -3799339.885 -8672636.063 10 0 60994 7200.00000 0 24576305.572 -4008881.819 -5598131.997 10 0 60994 8100.00000 0 25052045.781 -4246707.033 -2415055.749 10 0 60994 9000.00000 0 25119751.403 -4456064.078 814853.693 10 0 60994 9900.00000 0 24785899.790 -4580589.089 4028965.424 10 0 60994 10800.00000 0 24070235.865 -4566922.151 7164966.821 10 0 60994 11700.00000 0 23004912.487 -4367200.226 10162066.616 10 0 60994 12600.00000 0 21633131.996 -3941321.343 12962167.776 10 0 60994 13500.00000 0 20007345.948 -3258884.416 15510987.827 10 0 60994 14400.00000 0 18187088.299 -2300722.597 17759105.395 10 0 60994 15300.00000 0 16236532.324 -1059965.079 19662913.187 10 0 60994 16200.00000 0 14221872.850 457418.202 21185459.580 10 0 60994 17100.00000 0 12208642.446 2232613.015 22297163.047 10 0 60994 18000.00000 0 10259072.788 4234500.136 22976386.040 10 0 60994 18900.00000 0 8429610.482 6420716.717 23209857.485 10 0 60994 19800.00000 0 6768690.153 8739197.365 22992935.755 10 0 60994 20700.00000 0 5314857.063 11130132.588 22329706.744 10 0 60994 21600.00000 0 4095317.081 13528264.845 21232914.602 10 0 60994 22500.00000 0 3124974.212 15865428.165 19723725.649 10 0 60994 23400.00000 0 2405995.794 18073226.754 17831329.020 10 0 60994 24300.00000 0 1927923.473 20085741.742 15592380.694 10 0 60994 25200.00000 0 1668325.323 21842153.551 13050300.552 10 0 60994 26100.00000 0 1593961.664 23289170.195 10254435.231 10 0 60994 27000.00000 0 1662415.360 24383159.550 7259102.314 10 0 60994 27900.00000 0 1824117.474 25091895.535 4122534.112 10 0 60994 28800.00000 0 2024682.154 25395844.145 905741.650 10 0 60994 29700.00000 0 2207451.094 25288934.489 -2328678.593 10 0 60994 30600.00000 0 2316138.762 24778781.762 -5517771.191 10 0 60994 31500.00000 0 2297464.992 23886352.352 -8599456.609 10 0 60994 32400.00000 0 2103661.967 22645085.096 -11513749.185 10 0 60994 33300.00000 0 1694747.922 21099505.843 -14203933.457 10 0 60994 34200.00000 0 1040469.917 19303394.142 -16617674.898 10 0 60994 35100.00000 0 121832.228 17317579.795 -18708042.744 10 0 60994 36000.00000 0 -1067855.252 15207462.554 -20434424.620 10 0 60994 36900.00000 0 -2522453.682 13040359.750 -21763315.061 10 0 60994 37800.00000 0 -4223019.704 10882793.478 -22668962.890 10 0 60994 38700.00000 0 -6138377.095 8797831.076 -23133865.396 10 0 60994 39600.00000 0 -8226212.003 6842589.954 -23149100.417 10 0 60994 40500.00000 0 -10434646.180 5066010.411 -22714490.694 10 0 60994 41400.00000 0 -12704222.695 3506988.441 -21838598.104 10 0 60994 42300.00000 0 -14970221.412 2192945.151 -20538548.600 10 0 60994 43200.00000 0 -17165207.922 1138890.876 -18839691.842 10 0 60994 44100.00000 0 -19221709.971 347021.284 -16775102.517 10 0 60994 45000.00000 0 -21074910.162 -193139.550 -14384933.298 10 0 60994 45900.00000 0 -22665243.116 -504056.917 -11715632.096 10 0 60994 46800.00000 0 -23940789.263 -618994.467 -8819038.795 10 0 60994 47700.00000 0 -24859365.872 -580365.913 -5751378.970 10 0 60994 48600.00000 0 -25390228.597 -437700.025 -2572174.016 10 0 60994 49500.00000 0 -25515312.983 -245305.527 656911.271 10 0 60994 50400.00000 0 -25229964.570 -59734.999 3873261.370 10 0 60994 51300.00000 0 -24543127.544 62844.843 7014519.993 10 0 60994 52200.00000 0 -23476984.395 69265.308 10019794.047 10 0 60994 53100.00000 0 -22066061.906 -88159.998 12830828.488 10 0 60994 54000.00000 0 -20355840.892 -449383.685 15393129.677 10 0 60994 54900.00000 0 -18400927.614 -1044700.923 17657015.940 10 0 60994 55800.00000 0 -16262862.902 -1893235.009 19578575.505 10 0 60994 56700.00000 0 -14007659.796 -3001896.431 21120513.848 10 0 60994 57600.00000 0 -11703171.648 -4364860.096 22252874.636 10 0 60994 58500.00000 0 -9416399.477 -5963583.888 22953620.724 10 0 60994 59400.00000 0 -7210849.777 -7767369.317 23209064.268 10 0 60994 60300.00000 0 -5144051.865 -9734442.598 23014137.675 10 0 60994 61200.00000 0 -3265337.313 -11813512.884 22372499.862 10 0 60994 62100.00000 0 -1613973.256 -13945744.431 21296475.255 10 0 60994 63000.00000 0 -217726.839 -16067062.160 19806825.867 10 0 60994 63900.00000 0 908079.630 -18110695.732 17932359.860 10 0 60994 64800.00000 0 1760983.560 -20009856.962 15709383.083 10 0 60994 65700.00000 0 2351249.790 -21700439.243 13181003.094 10 0 60994 66600.00000 0 2701196.802 -23123626.117 10396298.256 10 0 60994 67500.00000 0 2844009.978 -24228299.399 7409367.340 10 0 60994 68400.00000 0 2822092.275 -24973145.142 4278277.741 10 0 60994 69300.00000 0 2685022.458 -25328368.083 1063932.836 10 0 60994 70200.00000 0 2487208.032 -25276941.467 -2171119.069 10 0 60994 71100.00000 0 2285333.227 -24815338.690 -5363910.274 10 0 60994 72000.00000 0 2135711.368 -23953715.188 -8452288.761 10 0 60994 72900.00000 0 2091655.206 -22715532.368 -11376137.671 10 0 60994 73800.00000 0 2200978.045 -21136639.236 -14078554.296 10 0 60994 74700.00000 0 2503732.865 -19263850.445 -16506964.606 10 0 60994 75600.00000 0 3030286.364 -17153080.918 -18614150.903 10 0 60994 76500.00000 0 3799810.394 -14867115.836 -20359172.173 10 0 60994 77400.00000 0 4819255.268 -12473110.089 -21708159.156 10 0 60994 78300.00000 0 6082848.847 -10039922.319 -22634968.903 10 0 60994 79200.00000 0 7572142.882 -7635395.261 -23121686.676 10 0 60994 80100.00000 0 9256604.926 -5323695.926 -23158966.085 10 0 60994 81000.00000 0 11094731.142 -3162826.137 -22746201.712 10 0 60994 81900.00000 0 13035633.536 -1202406.387 -21891531.649 10 0 60994 82800.00000 0 15021035.287 518175.802 -20611670.613 10 0 60994 83700.00000 0 16987590.908 1971177.357 -18931577.486 10 0 60994 84600.00000 0 18869434.487 3141413.892 -16883964.105 10 0 60994 85500.00000 0 20600849.784 4026640.448 -14508655.143 10 0 60995 0.00000 0 22118950.818 4637384.747 -11851811.849 10 0 60995 900.00000 0 23366262.042 4996242.157 -8965033.250 10 0 60995 1800.00000 0 24293088.639 5136662.916 -5904355.858 10 0 60995 2700.00000 0 24859580.919 5101285.152 -2729166.469 10 0 60995 3600.00000 0 25037404.734 4939884.163 498947.480 10 0 60995 4500.00000 0 24810949.205 4707025.618 3717389.117 10 0 60995 5400.00000 0 24178021.342 4459522.146 6863761.740 10 0 60995 6300.00000 0 23149998.646 4253800.924 9877073.562 10 0 60995 7200.00000 0 21751433.366 4143293.483 12698914.458 10 0 60995 8100.00000 0 20019124.802 4175957.858 15274582.293 10 0 60995 9000.00000 0 18000698.109 4392037.589 17554137.475 10 0 60995 9900.00000 0 15752748.418 4822152.077 19493365.802 10 0 60995 10800.00000 0 13338626.954 5485798.985 21054631.587 10 0 60995 11700.00000 0 10825960.490 6390332.191 22207605.073 10 0 60995 12600.00000 0 8284006.431 7530459.084 22929850.533 10 0 60995 13500.00000 0 5780952.454 8888279.477 23207263.971 10 0 60995 14400.00000 0 3381271.923 10433865.977 23034351.999 10 0 60995 15300.00000 0 1143244.048 12126363.203 22414346.265 10 0 60995 16200.00000 0 -883258.927 13915561.625 21359150.679 10 0 60995 17100.00000 0 -2658626.133 15743881.933 19889121.661 10 0 60995 18000.00000 0 -4154927.297 17548688.430 18032684.658 10 0 60995 18900.00000 0 -5356837.916 19264835.886 15825793.250 10 0 60995 19800.00000 0 -6262031.940 20827343.949 13311240.195 10 0 60995 20700.00000 0 -6881025.699 22174087.337 10537832.861 10 0 60995 21600.00000 0 -7236479.844 23248388.745 7559448.315 10 0 60995 22500.00000 0 -7361988.998 24001404.945 4433986.048 10 0 60995 23400.00000 0 -7300410.645 24394204.799 1222238.757 10 0 60995 24300.00000 0 -7101804.562 24399450.580 -2013296.441 10 0 60995 25200.00000 0 -6821070.864 24002610.621 -5209642.493 10 0 60995 26100.00000 0 -6515387.838 23202651.086 -8304577.676 10 0 60995 27000.00000 0 -6241559.366 22012176.850 -11237856.500 10 0 60995 27900.00000 0 -6053385.695 20457014.935 -13952391.306 10 0 60995 28800.00000 0 -5999170.227 18575257.749 -16395370.570 10 0 60995 29700.00000 0 -6119469.069 16415806.345 -18519291.342 10 0 60995 30600.00000 0 -6445179.521 14036475.042 -20282885.366 10 0 60995 31500.00000 0 -6996049.012 11501737.223 -21651920.676 10 0 60995 32400.00000 0 -7779667.876 8880206.982 -22599863.376 10 0 60995 33300.00000 0 -8790988.739 6241962.066 -23108387.231 10 0 60995 34200.00000 0 -10012392.761 3655819.847 -23167721.860 10 0 60995 35100.00000 0 -11414299.989 1186679.574 -22776833.590 10 0 60995 36000.00000 0 -12956298.095 -1106959.096 -21943436.268 10 0 60995 36900.00000 0 -14588742.101 -3175198.937 -20683832.527 10 0 60995 37800.00000 0 -16254758.002 -4978579.048 -19022589.225 10 0 60995 38700.00000 0 -17892566.448 -6489465.054 -16992053.744 10 0 60995 39600.00000 0 -19438029.234 -7692939.488 -14631720.834 10 0 60995 40500.00000 0 -20827312.183 -8587157.158 -11987462.400 10 0 60995 41400.00000 0 -21999553.127 -9183152.622 -9110635.211 10 0 60995 42300.00000 0 -22899423.472 -9504109.683 -6057083.785 10 0 60995 43200.00000 0 -23479476.294 -9584125.264 -2886057.758 10 0 60995 44100.00000 0 -23702182.813 -9466520.998 340935.406 10 0 60995 45000.00000 0 -23541572.066 -9201774.713 3561320.129 10 0 60995 45900.00000 0 -22984405.210 -8845159.731 6712661.973 10 0 60995 46800.00000 0 -22030835.240 -8454191.962 9733873.137 10 0 60995 47700.00000 0 -20694524.402 -8085992.702 12566391.054 10 0 60995 48600.00000 0 -19002214.074 -7794678.337 15155307.642 10 0 60995 49500.00000 0 -16992764.615 -7628886.915 17450427.760 10 0 60995 50400.00000 0 -14715704.607 -7629545.721 19407236.903 10 0 60995 51300.00000 0 -12229349.100 -7827973.801 20987760.008 10 0 60995 52200.00000 0 -9598564.210 -8244399.454 22161295.294 10 0 60995 53100.00000 0 -6892269.889 -8886955.419 22905009.430 10 0 60995 54000.00000 0 -4180783.490 -9751194.694 23204382.796 10 0 60995 54900.00000 0 -1533113.190 -10820148.367 23053496.310 10 0 60995 55800.00000 0 985687.401 -12064924.351 22455154.036 10 0 60995 56700.00000 0 3316994.593 -13445823.447 21420838.680 10 0 60995 57600.00000 0 5410817.874 -14913927.555 19970500.037 10 0 60995 58500.00000 0 7227639.978 -16413094.953 18132179.473 10 0 60995 59400.00000 0 8739817.528 -17882280.268 15941476.616 10 0 60995 60300.00000 0 9932484.044 -19258082.732 13440867.439 10 0 60995 61200.00000 0 10803917.711 -20477416.198 10678886.043 10 0 60995 62100.00000 0 11365358.651 -21480188.695 7709185.252 10 0 60995 63000.00000 0 11640283.636 -22211878.342 4589493.915 10 0 60995 63900.00000 0 11663169.155 -22625896.250 1380491.170 10 0 60995 64800.00000 0 11477795.619 -22685635.712 -1855379.988 10 0 60995 65700.00000 0 11135165.174 -22366119.943 -5055136.071 10 0 60995 66600.00000 0 10691122.221 -21655177.574 -8156488.499 10 0 60995 67500.00000 0 10203778.586 -20554095.141 -11099065.856 10 0 60995 68400.00000 0 9730853.637 -19077718.076 -13825598.087 10 0 60995 69300.00000 0 9327043.268 -17253995.309 -16283038.507 10 0 60995 70200.00000 0 9041530.237 -15122986.210 -18423601.022 10 0 60995 71100.00000 0 8915742.142 -12735371.478 -20205691.926 10 0 60995 72000.00000 0 8981452.437 -10150530.475 -21594718.009 10 0 60995 72900.00000 0 9259305.072 -7434265.635 -22563755.495 10 0 60995 73800.00000 0 9757825.072 -4656269.133 -23094067.309 10 0 60995 74700.00000 0 10472956.622 -1887437.553 -23175459.322 10 0 60995 75600.00000 0 11388147.858 802853.827 -22806469.453 10 0 60995 76500.00000 0 12474978.403 3349404.165 -21994386.775 10 0 60995 77400.00000 0 13694302.982 5693658.047 -20755100.984 10 0 60995 78300.00000 0 14997862.755 7785892.685 -19112785.752 10 0 60995 79200.00000 0 16330296.560 9587031.780 -17099422.545 10 0 60995 80100.00000 0 17631467.521 11070012.132 -14754174.444 10 0 60995 81000.00000 0 18839007.413 12220647.880 -12122622.232 10 0 60995 81900.00000 0 19890972.064 13037958.184 -9255877.615 10 0 60995 82800.00000 0 20728496.467 13533946.519 -6209590.758 10 0 60995 83700.00000 0 21298338.307 13732842.579 -3042871.331 10 0 60995 84600.00000 0 21555203.277 13669840.167 182856.124 10 0 60995 85500.00000 0 21463754.647 13389385.382 3405040.348 99